Time,TemperatureF,DewpointF,PressureIn,WindDirection,WindDirectionDegrees,WindSpeedMPH,WindSpeedGustMPH,Humidity,HourlyPrecipIn,Conditions,Clouds,dailyrainin,SoftwareType,DateUTC
2013-03-09 00:02:00,39.0,28.0,30.18,North,0,10.0,18.0,64,-99.99,,,-99.99,,2013-03-09 05:02:00,
2013-03-09 00:12:00,39.0,28.0,30.18,North,360,18.0,-999.0,64,-99.99,,,-99.99,,2013-03-09 05:12:00,
2013-03-09 00:22:00,39.0,27.0,30.18,North,0,9.0,20.0,60,-99.99,,,-99.99,,2013-03-09 05:22:00,
2013-03-09 00:32:00,39.0,27.0,30.18,North,350,15.0,17.0,60,-99.99,,,-99.99,,2013-03-09 05:32:00,
2013-03-09 00:42:00,39.0,27.0,30.18,North,350,13.0,-999.0,60,-99.99,,,-99.99,,2013-03-09 05:42:00,
2013-03-09 00:52:00,39.0,27.0,30.18,North,360,15.0,-999.0,60,-99.99,,,-99.99,,2013-03-09 05:52:00,
2013-03-09 01:02:00,39.0,27.0,30.18,North,360,15.0,-999.0,60,-99.99,,,-99.99,,2013-03-09 06:02:00,
2013-03-09 01:11:00,37.0,27.0,30.18,North,350,10.0,-999.0,64,-99.99,,,-99.99,,2013-03-09 06:11:00,
2013-03-09 01:22:00,37.0,27.0,30.18,North,360,9.0,-999.0,64,-99.99,,,-99.99,,2013-03-09 06:22:00,
2013-03-09 01:32:00,37.0,27.0,30.18,North,10,9.0,-999.0,64,-99.99,,,-99.99,,2013-03-09 06:32:00,
2013-03-09 01:42:00,37.0,27.0,30.18,NNE,20,8.0,-999.0,64,-99.99,,,-99.99,,2013-03-09 06:42:00,
2013-03-09 01:51:00,37.0,27.0,30.19,North,350,9.0,-999.0,64,-99.99,,,-99.99,,2013-03-09 06:51:00,
2013-03-09 02:01:00,37.0,27.0,30.19,North,350,9.0,-999.0,64,-99.99,,,-99.99,,2013-03-09 07:01:00,
2013-03-09 02:11:00,36.0,27.0,30.19,North,0,12.0,-999.0,69,-99.99,,,-99.99,,2013-03-09 07:11:00,
2013-03-09 02:21:00,36.0,27.0,30.19,North,350,12.0,-999.0,69,-99.99,,,-99.99,,2013-03-09 07:21:00,
2013-03-09 02:32:00,36.0,27.0,30.18,NNW,330,12.0,17.0,69,-99.99,,,-99.99,,2013-03-09 07:32:00,
2013-03-09 02:42:00,36.0,25.0,30.18,NNW,340,15.0,-999.0,64,-99.99,,,-99.99,,2013-03-09 07:42:00,
2013-03-09 02:52:00,36.0,25.0,30.18,North,350,8.0,17.0,64,-99.99,,,-99.99,,2013-03-09 07:52:00,
2013-03-09 03:01:00,36.0,25.0,30.18,North,350,8.0,17.0,64,-99.99,,,-99.99,,2013-03-09 08:01:00,
2013-03-09 03:11:00,36.0,25.0,30.17,North,350,8.0,16.0,64,-99.99,,,-99.99,,2013-03-09 08:11:00,
2013-03-09 03:22:00,36.0,25.0,30.18,North,350,7.0,-999.0,64,-99.99,,,-99.99,,2013-03-09 08:22:00,
2013-03-09 03:32:00,36.0,25.0,30.18,North,350,9.0,-999.0,64,-99.99,,,-99.99,,2013-03-09 08:32:00,
2013-03-09 03:42:00,36.0,25.0,30.18,North,360,12.0,-999.0,64,-99.99,,,-99.99,,2013-03-09 08:42:00,
2013-03-09 03:52:00,36.0,25.0,30.18,North,350,10.0,-999.0,64,-99.99,,,-99.99,,2013-03-09 08:52:00,
2013-03-09 04:02:00,36.0,25.0,30.18,North,350,10.0,-999.0,64,-99.99,,,-99.99,,2013-03-09 09:02:00,
2013-03-09 04:12:00,34.0,25.0,30.18,North,10,12.0,-999.0,69,-99.99,,,-99.99,,2013-03-09 09:12:00,
2013-03-09 04:21:00,34.0,25.0,30.19,North,350,9.0,-999.0,69,-99.99,,,-99.99,,2013-03-09 09:21:00,
2013-03-09 04:32:00,34.0,25.0,30.20,NNW,330,9.0,-999.0,69,-99.99,,,-99.99,,2013-03-09 09:32:00,
2013-03-09 04:42:00,34.0,25.0,30.20,NNW,340,8.0,-999.0,69,-99.99,,,-99.99,,2013-03-09 09:42:00,
2013-03-09 04:52:00,34.0,25.0,30.20,North,350,10.0,-999.0,69,-99.99,,,-99.99,,2013-03-09 09:52:00,
2013-03-09 05:01:00,34.0,25.0,30.20,North,350,10.0,-999.0,69,-99.99,,,-99.99,,2013-03-09 10:01:00,
2013-03-09 05:11:00,34.0,25.0,30.21,North,350,9.0,-999.0,69,-99.99,,,-99.99,,2013-03-09 10:11:00,
2013-03-09 05:21:00,32.0,25.0,30.22,NNW,340,6.0,-999.0,74,-99.99,,,-99.99,,2013-03-09 10:21:00,
2013-03-09 05:31:00,32.0,25.0,30.22,North,0,9.0,-999.0,74,-99.99,,,-99.99,,2013-03-09 10:31:00,
2013-03-09 05:42:00,32.0,25.0,30.22,North,350,10.0,-999.0,74,-99.99,,,-99.99,,2013-03-09 10:42:00,
2013-03-09 05:52:00,32.0,23.0,30.22,North,10,9.0,-999.0,69,-99.99,,,-99.99,,2013-03-09 10:52:00,
2013-03-09 06:01:00,32.0,23.0,30.22,North,10,9.0,-999.0,69,-99.99,,,-99.99,,2013-03-09 11:01:00,
2013-03-09 06:11:00,32.0,23.0,30.23,North,10,8.0,-999.0,69,-99.99,,,-99.99,,2013-03-09 11:11:00,
2013-03-09 06:21:00,32.0,23.0,30.23,North,0,9.0,17.0,69,-99.99,,,-99.99,,2013-03-09 11:21:00,
2013-03-09 06:32:00,32.0,23.0,30.23,NNE,20,7.0,-999.0,69,-99.99,,,-99.99,,2013-03-09 11:32:00,
2013-03-09 06:42:00,32.0,23.0,30.24,North,0,12.0,-999.0,69,-99.99,,,-99.99,,2013-03-09 11:42:00,
2013-03-09 06:52:00,34.0,23.0,30.24,North,0,13.0,-999.0,64,-99.99,,,-99.99,,2013-03-09 11:52:00,
2013-03-09 07:02:00,34.0,23.0,30.24,North,0,13.0,-999.0,64,-99.99,,,-99.99,,2013-03-09 12:02:00,
2013-03-09 07:11:00,34.0,23.0,30.24,North,0,9.0,-999.0,64,-99.99,,,-99.99,,2013-03-09 12:11:00,
2013-03-09 07:21:00,36.0,23.0,30.24,North,10,13.0,17.0,59,-99.99,,,-99.99,,2013-03-09 12:21:00,
2013-03-09 07:32:00,36.0,23.0,30.25,NNE,30,12.0,-999.0,59,-99.99,,,-99.99,,2013-03-09 12:32:00,
2013-03-09 07:42:00,36.0,23.0,30.25,NNE,20,14.0,16.0,59,-99.99,,,-99.99,,2013-03-09 12:42:00,
2013-03-09 07:52:00,37.0,23.0,30.25,NNE,20,17.0,17.0,55,-99.99,,,-99.99,,2013-03-09 12:52:00,
2013-03-09 08:02:00,37.0,23.0,30.25,NNE,20,17.0,17.0,55,-99.99,,,-99.99,,2013-03-09 13:02:00,
2013-03-09 08:11:00,37.0,23.0,30.25,North,350,10.0,17.0,55,-99.99,,,-99.99,,2013-03-09 13:11:00,
2013-03-09 08:21:00,39.0,23.0,30.25,North,10,12.0,17.0,51,-99.99,,,-99.99,,2013-03-09 13:21:00,
2013-03-09 08:32:00,39.0,23.0,30.26,NNE,30,10.0,16.0,51,-99.99,,,-99.99,,2013-03-09 13:32:00,
2013-03-09 08:42:00,39.0,23.0,30.26,NNE,20,9.0,17.0,51,-99.99,,,-99.99,,2013-03-09 13:42:00,
2013-03-09 08:52:00,39.0,23.0,30.26,North,0,8.0,18.0,51,-99.99,,,-99.99,,2013-03-09 13:52:00,
2013-03-09 09:01:00,39.0,23.0,30.26,North,0,8.0,18.0,51,-99.99,,,-99.99,,2013-03-09 14:01:00,
2013-03-09 09:11:00,41.0,23.0,30.26,North,10,14.0,-999.0,48,-99.99,,,-99.99,,2013-03-09 14:11:00,
2013-03-09 09:21:00,43.0,25.0,30.26,North,10,10.0,17.0,48,-99.99,,,-99.99,,2013-03-09 14:21:00,
2013-03-09 09:32:00,45.0,25.0,30.26,NNE,20,12.0,-999.0,45,-99.99,,,-99.99,,2013-03-09 14:32:00,
2013-03-09 09:42:00,45.0,23.0,30.26,NNE,20,6.0,-999.0,42,-99.99,,,-99.99,,2013-03-09 14:42:00,
2013-03-09 09:52:00,46.0,23.0,30.26,NNE,20,6.0,18.0,39,-99.99,,,-99.99,,2013-03-09 14:52:00,
2013-03-09 10:02:00,46.0,23.0,30.26,NNE,20,6.0,18.0,39,-99.99,,,-99.99,,2013-03-09 15:02:00,
2013-03-09 10:12:00,46.0,23.0,30.27,NNE,30,8.0,-999.0,39,-99.99,,,-99.99,,2013-03-09 15:12:00,
2013-03-09 10:22:00,48.0,23.0,30.27,North,360,9.0,20.0,36,-99.99,,,-99.99,,2013-03-09 15:22:00,
2013-03-09 10:32:00,48.0,23.0,30.27,North,10,13.0,-999.0,36,-99.99,,,-99.99,,2013-03-09 15:32:00,
2013-03-09 10:42:00,48.0,23.0,30.27,North,350,12.0,-999.0,36,-99.99,,,-99.99,,2013-03-09 15:42:00,
2013-03-09 10:52:00,50.0,23.0,30.26,NE,40,9.0,17.0,34,-99.99,,,-99.99,,2013-03-09 15:52:00,
2013-03-09 11:01:00,50.0,23.0,30.26,NE,40,9.0,17.0,34,-99.99,,,-99.99,,2013-03-09 16:01:00,
2013-03-09 11:11:00,50.0,23.0,30.26,NNW,340,9.0,-999.0,34,-99.99,,,-99.99,,2013-03-09 16:11:00,
2013-03-09 11:21:00,52.0,23.0,30.26,NNW,340,8.0,-999.0,32,-99.99,,,-99.99,,2013-03-09 16:21:00,
2013-03-09 11:32:00,52.0,19.0,30.27,NNE,30,13.0,18.0,27,-99.99,,,-99.99,,2013-03-09 16:32:00,
2013-03-09 11:42:00,52.0,21.0,30.26,NNE,30,7.0,-999.0,29,-99.99,,,-99.99,,2013-03-09 16:42:00,
2013-03-09 11:52:00,54.0,21.0,30.26,NNE,20,12.0,16.0,27,-99.99,,,-99.99,,2013-03-09 16:52:00,
2013-03-09 12:01:00,54.0,21.0,30.26,NNE,20,12.0,16.0,27,-99.99,,,-99.99,,2013-03-09 17:01:00,
2013-03-09 12:11:00,54.0,21.0,30.26,NE,40,15.0,-999.0,27,-99.99,,,-99.99,,2013-03-09 17:11:00,
2013-03-09 12:22:00,54.0,21.0,30.26,ENE,60,6.0,20.0,27,-99.99,,,-99.99,,2013-03-09 17:22:00,
2013-03-09 12:32:00,55.0,21.0,30.26,North,360,9.0,-999.0,26,-99.99,,,-99.99,,2013-03-09 17:32:00,
2013-03-09 12:42:00,55.0,19.0,30.26,North,0,7.0,-999.0,24,-99.99,,,-99.99,,2013-03-09 17:42:00,
2013-03-09 12:52:00,55.0,19.0,30.25,North,360,10.0,-999.0,24,-99.99,,,-99.99,,2013-03-09 17:52:00,
2013-03-09 13:02:00,55.0,19.0,30.25,North,360,10.0,-999.0,24,-99.99,,,-99.99,,2013-03-09 18:02:00,
2013-03-09 13:11:00,55.0,18.0,30.24,ENE,60,8.0,-999.0,22,-99.99,,,-99.99,,2013-03-09 18:11:00,
2013-03-09 13:21:00,57.0,19.0,30.24,North,10,9.0,-999.0,22,-99.99,,,-99.99,,2013-03-09 18:21:00,
2013-03-09 13:32:00,57.0,19.0,30.23,NNE,30,8.0,16.0,22,-99.99,,,-99.99,,2013-03-09 18:32:00,
2013-03-09 13:42:00,57.0,18.0,30.23,ENE,60,3.0,16.0,20,-99.99,,,-99.99,,2013-03-09 18:42:00,
2013-03-09 13:52:00,57.0,19.0,30.22,NE,50,6.0,-999.0,22,-99.99,,,-99.99,,2013-03-09 18:52:00,
2013-03-09 14:01:00,57.0,19.0,30.22,NE,50,6.0,-999.0,22,-99.99,,,-99.99,,2013-03-09 19:01:00,
2013-03-09 14:11:00,57.0,18.0,30.22,NE,50,8.0,-999.0,20,-99.99,,,-99.99,,2013-03-09 19:11:00,
2013-03-09 14:22:00,57.0,18.0,30.22,East,80,7.0,-999.0,20,-99.99,,,-99.99,,2013-03-09 19:22:00,
2013-03-09 14:32:00,59.0,18.0,30.22,ENE,60,12.0,-999.0,19,-99.99,,,-99.99,,2013-03-09 19:32:00,
2013-03-09 14:42:00,59.0,19.0,30.22,ENE,60,7.0,-999.0,21,-99.99,,,-99.99,,2013-03-09 19:42:00,
2013-03-09 14:52:00,59.0,18.0,30.22,East,80,9.0,-999.0,19,-99.99,,,-99.99,,2013-03-09 19:52:00,
2013-03-09 15:01:00,59.0,18.0,30.22,East,80,9.0,-999.0,19,-99.99,,,-99.99,,2013-03-09 20:01:00,
2013-03-09 15:11:00,59.0,19.0,30.22,ENE,60,6.0,-999.0,21,-99.99,,,-99.99,,2013-03-09 20:11:00,
2013-03-09 15:22:00,59.0,18.0,30.22,NE,40,7.0,-999.0,19,-99.99,,,-99.99,,2013-03-09 20:22:00,
2013-03-09 15:32:00,59.0,18.0,30.22,NE,50,2.0,-999.0,19,-99.99,,,-99.99,,2013-03-09 20:32:00,
2013-03-09 15:42:00,59.0,18.0,30.22,NE,40,8.0,-999.0,19,-99.99,,,-99.99,,2013-03-09 20:42:00,
2013-03-09 15:52:00,59.0,18.0,30.23,North,350,9.0,-999.0,19,-99.99,,,-99.99,,2013-03-09 20:52:00,
2013-03-09 16:02:00,59.0,18.0,30.23,North,350,9.0,-999.0,19,-99.99,,,-99.99,,2013-03-09 21:02:00,
2013-03-09 16:12:00,59.0,18.0,30.23,NNE,20,8.0,-999.0,19,-99.99,,,-99.99,,2013-03-09 21:12:00,
2013-03-09 16:22:00,59.0,18.0,30.23,NE,50,8.0,-999.0,19,-99.99,,,-99.99,,2013-03-09 21:22:00,
2013-03-09 16:32:00,57.0,23.0,30.24,SSE,160,10.0,-999.0,26,-99.99,,,-99.99,,2013-03-09 21:32:00,
2013-03-09 16:42:00,55.0,32.0,30.24,SE,130,7.0,-999.0,40,-99.99,,,-99.99,,2013-03-09 21:42:00,
2013-03-09 16:52:00,52.0,28.0,30.25,SSE,150,5.0,-999.0,40,-99.99,,,-99.99,,2013-03-09 21:52:00,
2013-03-09 17:01:00,52.0,28.0,30.25,SSE,150,5.0,-999.0,40,-99.99,,,-99.99,,2013-03-09 22:01:00,
2013-03-09 17:11:00,54.0,30.0,30.25,SE,130,5.0,-999.0,40,-99.99,,,-99.99,,2013-03-09 22:11:00,
2013-03-09 17:21:00,52.0,32.0,30.25,SE,130,5.0,-999.0,46,-99.99,,,-99.99,,2013-03-09 22:21:00,
2013-03-09 17:32:00,50.0,30.0,30.26,ESE,120,6.0,-999.0,46,-99.99,,,-99.99,,2013-03-09 22:32:00,
2013-03-09 17:42:00,50.0,30.0,30.26,ESE,110,3.0,-999.0,46,-99.99,,,-99.99,,2013-03-09 22:42:00,
2013-03-09 17:51:00,48.0,30.0,30.26,ESE,120,6.0,-999.0,49,-99.99,,,-99.99,,2013-03-09 22:51:00,
2013-03-09 18:01:00,48.0,30.0,30.26,ESE,120,6.0,-999.0,49,-99.99,,,-99.99,,2013-03-09 23:01:00,
2013-03-09 18:11:00,46.0,28.0,30.26,SE,130,5.0,-999.0,49,-99.99,,,-99.99,,2013-03-09 23:11:00,
2013-03-09 18:21:00,45.0,27.0,30.26,SE,130,2.0,-999.0,48,-99.99,,,-99.99,,2013-03-09 23:21:00,
2013-03-09 18:32:00,43.0,27.0,30.27,ESE,120,3.0,-999.0,52,-99.99,,,-99.99,,2013-03-09 23:32:00,
2013-03-09 18:42:00,43.0,27.0,30.27,SE,130,5.0,-999.0,52,-99.99,,,-99.99,,2013-03-09 23:42:00,
2013-03-09 18:52:00,41.0,28.0,30.27,East,90,1.0,-999.0,60,-99.99,,,-99.99,,2013-03-09 23:52:00,
2013-03-09 19:02:00,41.0,28.0,30.27,East,90,1.0,-999.0,60,-99.99,,,-99.99,,2013-03-10 00:02:00,
2013-03-09 19:11:00,39.0,28.0,30.28,ESE,110,3.0,-999.0,64,-99.99,,,-99.99,,2013-03-10 00:11:00,
2013-03-09 19:22:00,37.0,27.0,30.28,SSW,210,1.0,-999.0,64,-99.99,,,-99.99,,2013-03-10 00:22:00,
2013-03-09 19:32:00,36.0,28.0,30.28,South,180,1.0,-999.0,74,-99.99,,,-99.99,,2013-03-10 00:32:00,
2013-03-09 19:42:00,36.0,27.0,30.28,ENE,70,1.0,-999.0,69,-99.99,,,-99.99,,2013-03-10 00:42:00,
2013-03-09 19:52:00,36.0,27.0,30.28,North,0,0.0,-999.0,69,-99.99,,,-99.99,,2013-03-10 00:52:00,
2013-03-09 20:01:00,36.0,27.0,30.28,North,0,0.0,-999.0,69,-99.99,,,-99.99,,2013-03-10 01:01:00,
2013-03-09 20:11:00,34.0,28.0,30.29,North,0,0.0,-999.0,80,-99.99,,,-99.99,,2013-03-10 01:11:00,
2013-03-09 20:21:00,34.0,27.0,30.29,North,0,0.0,-999.0,74,-99.99,,,-99.99,,2013-03-10 01:21:00,
2013-03-09 20:32:00,32.0,27.0,30.29,North,0,0.0,-999.0,80,-99.99,,,-99.99,,2013-03-10 01:32:00,
2013-03-09 20:41:00,32.0,27.0,30.29,North,0,0.0,-999.0,80,-99.99,,,-99.99,,2013-03-10 01:41:00,
2013-03-09 20:52:00,32.0,28.0,30.29,North,0,0.0,-999.0,86,-99.99,,,-99.99,,2013-03-10 01:52:00,
2013-03-09 21:01:00,32.0,28.0,30.29,North,0,0.0,-999.0,86,-99.99,,,-99.99,,2013-03-10 02:01:00,
2013-03-09 21:11:00,32.0,28.0,30.29,East,100,2.0,-999.0,86,-99.99,,,-99.99,,2013-03-10 02:11:00,
2013-03-09 21:22:00,32.0,28.0,30.30,NNE,30,1.0,-999.0,86,-99.99,,,-99.99,,2013-03-10 02:22:00,
2013-03-09 21:32:00,32.0,28.0,30.30,North,0,0.0,-999.0,86,-99.99,,,-99.99,,2013-03-10 02:32:00,
2013-03-09 21:42:00,32.0,28.0,30.30,North,350,2.0,-999.0,86,-99.99,,,-99.99,,2013-03-10 02:42:00,
2013-03-09 21:52:00,32.0,28.0,30.30,East,100,1.0,-999.0,86,-99.99,,,-99.99,,2013-03-10 02:52:00,
2013-03-09 22:02:00,32.0,28.0,30.30,East,100,1.0,-999.0,86,-99.99,,,-99.99,,2013-03-10 03:02:00,
2013-03-09 22:11:00,30.0,27.0,30.30,North,0,0.0,-999.0,86,-99.99,,,-99.99,,2013-03-10 03:11:00,
2013-03-09 22:22:00,28.0,27.0,30.31,NNW,330,1.0,-999.0,92,-99.99,,,-99.99,,2013-03-10 03:22:00,
2013-03-09 22:32:00,28.0,27.0,30.31,NNW,340,2.0,-999.0,92,-99.99,,,-99.99,,2013-03-10 03:32:00,
2013-03-09 22:42:00,28.0,27.0,30.31,NNW,330,2.0,-999.0,92,-99.99,,,-99.99,,2013-03-10 03:42:00,
2013-03-09 22:52:00,28.0,27.0,30.31,North,0,0.0,-999.0,92,-99.99,,,-99.99,,2013-03-10 03:52:00,
2013-03-09 23:01:00,28.0,27.0,30.31,North,0,0.0,-999.0,92,-99.99,,,-99.99,,2013-03-10 04:01:00,
2013-03-09 23:11:00,28.0,27.0,30.31,North,-999,-999.0,-999.0,92,-99.99,,,-99.99,,2013-03-10 04:11:00,
2013-03-09 23:21:00,28.0,27.0,30.31,North,0,0.0,-999.0,92,-99.99,,,-99.99,,2013-03-10 04:21:00,
2013-03-09 23:32:00,28.0,27.0,30.31,North,0,0.0,-999.0,92,-99.99,,,-99.99,,2013-03-10 04:32:00,
2013-03-09 23:42:00,28.0,27.0,30.31,North,0,0.0,-999.0,92,-99.99,,,-99.99,,2013-03-10 04:42:00,
2013-03-09 23:52:00,28.0,27.0,30.32,NNW,330,1.0,-999.0,92,-99.99,,,-99.99,,2013-03-10 04:52:00,